Retour au catalogue

STARLINK-1202

ActifCommunicationsVLEO
NORAD 45183·PAYLOAD·🇺🇸 United States

Lancé Feb 17, 2020 depuis Cape Canaveral Space Force Station

Loading…

Prochains Passages (prochaines 24 heures)

TLE

FraisSource: CelesTrak SupGP

Époque: Sep 15, 2026, 01:33 UTC

1 45183C 20012F   26258.06506944  .00002729  00000+0  61151-4 0  2588
2 45183  53.1517 232.6136 0002328  87.2371 349.1900 15.42847860    13

Suivez STARLINK-1202 en temps réel avec AllMySat

Download on the App Store